Location: ???????
(55.4362°N, 38.1183°E)
Time: 12:31:35
(UTC+00:00)

USA 267 - Pass Details

Date: 26 October 2021
Orbit: 1101 x 1107 km, 123.0° (Epoch: 25 November)

Event Time Altitude Azimuth Distance (km) Brightness Sun altitude
Rises 14:41:42 0° 126° (SE) 3,912 5.8 -6.2°
Reaches altitude 10° 14:44:13 10° 130° (SE) 2,956 5.2 -6.6°
Maximum altitude 14:50:41 63° 210° (SSW) 1,224 3.8 -7.5°
Drops below altitude 10° 14:57:10 10° 292° (WNW) 2,965 6.5 -8.4°
Sets 14:59:42 0° 295° (WNW) 3,925 7.2 -8.7°
